This is the latest recevied weather packets stored in our database for station/object N2UFM. If no packets are shown the sender has not sent any weather packets the latest 10 day(s).
| Time | Temp. | Humidity | Pressure | Rain* | Wind** | Luminosity | Snow |
|---|---|---|---|---|---|---|---|
| 1777537195 | 8.89° C | 95% | 1009.1 hPa | 0.25 mm | - | - | - |
| 1777536895 | 8.89° C | 95% | 1009.1 hPa | 0.25 mm | - | - | - |
| 1777536595 | 8.89° C | 95% | 1009.1 hPa | 0.25 mm | - | - | - |
| 1777536294 | 9.44° C | 95% | 1009.2 hPa | 0.25 mm | - | - | - |
| 1777535994 | 9.44° C | 95% | 1009.2 hPa | 0.25 mm | - | - | - |
| 1777535694 | 9.44° C | 95% | 1009.2 hPa | 0.25 mm | - | - | - |
| 1777535394 | 9.44° C | 95% | 1009.3 hPa | 0.25 mm | - | - | - |
| 1777535094 | 9.44° C | 95% | 1009.3 hPa | 0.25 mm | - | - | - |
| 1777534794 | 9.44° C | 95% | 1009.3 hPa | 0.25 mm | - | - | - |
| 1777534494 | 9.44° C | 95% | 1009.4 hPa | 0.25 mm | - | - | - |
| 1777534193 | 9.44° C | 95% | 1009.5 hPa | 0.25 mm | - | - | - |
| 1777533893 | 9.44° C | 95% | 1009.4 hPa | 0.51 mm | - | - | - |
| 1777533593 | 9.44° C | 95% | 1009.5 hPa | 0.51 mm | - | - | - |
| 1777533293 | 8.89° C | 95% | 1009.6 hPa | 0.51 mm | - | - | - |
| 1777532993 | 8.89° C | 95% | 1009.6 hPa | 1.02 mm | - | - | - |
| 1777532693 | 8.89° C | 95% | 1009.6 hPa | 2.03 mm | - | - | - |
| 1777532393 | 8.89° C | 95% | 1009.7 hPa | 2.03 mm | - | - | - |
| 1777532092 | 8.89° C | 95% | 1009.8 hPa | 2.29 mm | - | - | - |
| 1777531792 | 8.89° C | 95% | 1009.8 hPa | 2.29 mm | - | - | - |
| 1777531492 | 8.89° C | 94% | 1009.8 hPa | 2.79 mm | - | - | - |
| 1777531192 | 8.89° C | 94% | 1009.8 hPa | 2.79 mm | - | - | - |
| 1777530892 | 8.89° C | 94% | 1009.8 hPa | 3.3 mm | - | - | - |
| 1777530592 | 8.89° C | 94% | 1009.7 hPa | 3.56 mm | - | - | - |
| 1777530291 | 8.89° C | 94% | 1009.8 hPa | 3.56 mm | - | - | - |
| 1777529991 | 8.89° C | 94% | 1010 hPa | 3.56 mm | - | - | - |
* Rain latest hour (hover to see other rain measurements)
** Current wind speed in m/s (hover to see current wind gust speed)